RH
94 93 99 99 94 96 89 88 99 99 98 90 97 99 100 99 100 100 98 100 100 92 82 76 69 82 74 95 94 88 85 82 88 93 90 83 90 86 91 81 86 88 95 94 93 98 91 38 40 46 52 45 39 43
96 97 95 95 98 95 86 89 99 98 98 91 99 98 100 98 100 100 100 94 100 97 99 87 75 74 70 72 92 94 91 81 82 89 85 64 68 71 69 93 61 87 80 89 84 76 50 41 51 47 47 44 49 53
95 98 96 100 98 96 86 88 96 98 97 96 99 100 100 100 100 100 99 100 100 99 86 89 88 73 68 62 88 90 92 92 85 79 86 85 66 63 70 65 58 53 60 54 59 52 52 49 50 49 48 49 53 54
98 100 96 96 99 96 90 88 99 98 97 94 98 98 100 100 100 100 99 99 100 95 88 95 91 88 86 73 73 95 94 92 93 90 95 96 91 65 73 59 55 52 52 54 53 56 56 53 51 53 54 54 56 57
91 98 89 98 98 94 86 91 98 99 95 95 93 97 100 100 100 100 99 100 100 99 94 94 94 89 86 77 67 80 96 76 87 96 96 97 91 80 77 67 63 52 51 57 60 47 45 53 54 55 56 57 57 54
100 93 99 100 98 94 85 95 100 96 92 97 96 96 100 100 100 100 100 98 99 100 96 99 98 98 90 84 76 71 71 74 73 78 86 76 75 77 88 86 52 46 42 42 49 46 45 54 57 58 59 59 57 50
84 89 94 100 96 90 86 99 97 96 97 98 91 96 100 100 100 99 96 95 91 100 96 99 99 96 95 93 91 87 82 78 85 80 88 81 80 78 79 92 55 47 50 49 50 52 64 60 62 62 59 60 54 52
99 88 98 95 95 63 98 98 95 97 99 81 91 100 100 100 100 100 96 94 99 100 96 100 100 98 92 93 95 90 91 89 86 91 84 85 82 78 96 73 50 53 56 56 55 54 58 61 64 65 61 60 56 58
93 98 96 94 47 98 98 93 97 100 89 87 100 100 100 100 98 95 91 100 100 95 98 100 100 100 97 98 93 86 92 94 93 81 83 88 86 99 82 74 54 60 59 65 64 61 63 64 68 66 63 62 53 58
82 82 92 45 90 99 92 98 100 98 84 95 100 99 100 100 93 92 99 93 91 92 92 97 85 99 94 92 97 94 99 100 99 98 94 99 95 75 69 64 56 59 60 61 70 85 75 77 72 72 66 60 51 50
74 76 46 63 100 91 98 99 100 92 98 98 98 99 100 95 87 85 94 100 97 99 92 84 81 96 92 98 98 96 100 100 99 97 94 96 86 85 76 71 61 63 64 64 62 57 64 65 71 71 67 58 54 46
71 51 37 91 100 95 98 100 100 100 100 95 97 100 96 90 91 93 99 98 95 97 92 90 86 86 84 72 92 93 100 98 92 85 99 84 83 69 75 80 73 69 70 72 64 61 67 70 69 62 58 50 39 37
49 30 56 84 94 97 98 100 99 100 96 97 99 94 95 100 100 98 98 96 94 92 98 98 99 83 78 73 98 98 98 93 79 82 82 81 75 82 88 87 86 81 77 73 74 74 72 69 63 51 39 39 35 35
28 29 65 79 92 96 98 99 100 100 97 99 100 100 97 100 94 94 90 91 88 96 100 96 96 95 87 97 96 89 94 88 93 94 91 80 76 90 96 91 84 82 78 75 72 66 57 42 40 39 35 36 37 39
22 25 58 61 63 78 98 99 100 100 99 100 100 100 99 100 100 100 100 100 100 98 88 91 89 86 94 94 91 88 92 94 90 90 90 67 76 94 95 83 78 77 73 67 56 43 37 35 34 40 44 46 48 50
21 20 28 34 46 75 96 99 100 100 100 99 99 98 97 95 99 98 99 99 98 93 76 76 98 95 91 90 90 92 92 91 88 97 76 72 82 98 85 74 72 68 57 45 39 36 39 40 41 45 53 53 52 52
22 31 20 18 39 70 95 96 99 99 99 99 99 90 93 92 94 96 99 99 96 81 98 99 93 96 89 87 94 88 91 94 89 85 80 76 86 95 74 56 51 46 44 43 44 46 44 44 44 44 42 46 51 58
21 18 19 28 45 66 91 96 98 99 98 98 97 98 92 94 95 98 99 99 95 82 77 97 87 94 92 93 96 95 89 88 86 82 78 85 92 91 59 51 50 47 44 43 42 42 41 40 41 45 53 61 67 70
26 22 20 36 59 82 93 95 97 98 98 98 99 99 99 98 100 99 99 100 85 64 68 83 92 97 96 93 96 90 86 89 82 79 81 87 90 66 54 59 62 44 41 40 40 40 44 50 52 60 68 72 71 73
22 24 22 38 64 80 91 97 97 98 98 99 98 97 100 99 99 100 99 87 68 68 85 90 80 72 73 73 79 77 77 74 66 74 76 74 71 66 60 48 45 46 45 49 50 50 52 57 65 71 74 75 76 74
22 25 24 46 68 84 93 95 97 98 97 98 99 98 99 100 99 99 99 100 99 100 99 81 84 82 80 80 79 72 75 64 61 61 67 68 63 53 59 59 55 51 41 45 47 59 64 65 70 74 75 77 77 76
34 33 43 61 73 78 96 93 98 97 98 98 98 98 99 99 99 99 99 99 98 98 98 88 92 93 91 81 77 73 67 58 50 53 59 61 66 62 56 51 41 41 47 52 54 58 66 73 76 80 82 83 86 87
39 46 64 75 70 70 82 86 95 96 97 97 98 98 98 98 98 99 98 97 97 97 100 99 98 98 97 85 74 73 68 56 59 61 61 59 53 45 40 41 42 38 45 60 70 73 76 81 87 90 90 88 79 63
51 60 64 80 81 95 79 84 93 97 97 96 97 96 97 97 97 98 96 96 97 96 97 97 97 96 95 82 76 74 70 62 61 60 54 44 43 52 50 49 58 66 69 70 76 81 88 93 94 91 84 71 55 52
51 69 73 90 80 90 94 93 93 95 96 96 96 96 96 96 97 96 96 96 96 96 96 96 96 89 77 82 77 70 63 51 41 40 56 54 49 57 69 73 76 79 84 84 88 92 94 94 90 80 62 54 52 48
64 78 88 92 93 96 97 99 96 96 95 96 96 96 96 97 95 95 95 96 95 96 96 96 93 81 78 78 76 75 66 59 49 40 62 70 72 68 69 72 79 86 86 92 90 91 91 88 75 58 55 54 46 36
66 77 86 93 96 93 96 93 96 96 96 96 96 96 96 96 95 92 98 96 95 96 96 96 93 84 79 82 89 88 79 66 61 58 67 77 84 82 79 73 79 80 88 92 94 91 82 66 58 59 53 42 36 37
78 82 95 91 91 93 98 95 95 96 95 94 94 95 95 95 94 100 96 96 96 96 96 96 96 89 89 91 92 92 89 79 69 73 81 84 84 82 81 80 84 90 92 94 86 66 62 64 59 50 40 39 39 41
95 93 95 98 92 93 96 97 97 96 98 96 97 96 95 100 97 96 96 96 96 96 96 96 96 96 96 96 96 90 70 72 70 76 69 74 79 84 88 88 90 90 82 69 68 71 64 56 46 42 43 44 46 47
95 94 95 98 94 97 99 96 100 100 96 97 95 94 96 97 97 96 96 96 96 95 96 96 96 96 95 88 75 74 74 74 72 68 67 73 79 85 90 88 80 75 76 78 72 65 54 46 46 48 49 51 48 35
95 95 95 92 99 98 95 96 96 96 96 89 95 94 96 95 96 96 96 96 96 96 96 96 95 93 85 78 74 73 72 74 73 72 73 75 81 84 83 85 87 86 81 74 65 54 48 50 51 53 54 40 29 22
100 99 99 100 99 96 96 95 94 92 94 91 94 97 96 96 96 96 96 96 96 96 95 94 89 83 84 83 82 80 78 78 79 80 80 82 86 89 90 89 88 85 78 68 56 53 54 56 58 45 29 24 28 36
98 96 96 94 96 100 96 91 92 94 91 95 96 98 96 93 93 88 90 89 88 89 90 90 90 90 90 89 88 86 85 86 88 90 94 96 95 93 91 90 87 83 72 62 59 60 62 53 31 24 28 34 37 47
Wind_Speed
35 34 35 33 30 28 28 29 30 31 31 31 28 19 13 23 23 26 27 24 21 7 6 3 4 3 6 4 2 4 3 1 2 4 2 2 3 5 4 6 6 5 5 3 3 2 6 5 3 3 2 4 4 18
36 35 32 34 31 27 28 29 30 30 29 29 25 19 7 25 22 24 25 23 21 7 3 5 9 11 13 7 7 10 2 2 1 3 1 1 2 4 5 4 10 5 6 5 6 5 2 4 4 3 3 6 12 22
37 36 32 32 32 27 28 30 29 30 30 28 21 19 14 21 21 23 26 17 19 8 9 13 8 8 8 11 10 5 4 5 3 3 2 1 2 1 4 4 4 4 11 3 5 5 4 6 4 6 8 13 15 18
35 34 34 31 31 27 28 30 28 30 30 29 20 18 15 19 20 24 25 19 15 4 3 3 6 4 5 5 8 10 6 5 5 3 3 2 1 4 3 1 3 2 8 6 1 2 3 4 8 14 18 19 20 20
35 34 33 32 30 28 30 31 30 30 31 29 17 15 19 19 20 21 22 19 15 5 2 4 3 2 3 5 8 10 9 6 5 3 2 2 1 1 2 3 2 4 5 5 4 11 6 7 19 20 23 24 23 24
32 33 32 31 29 29 31 29 32 31 32 28 19 15 21 19 20 18 10 17 15 14 1 1 1 1 4 6 8 11 10 7 3 2 3 3 3 2 3 4 3 15 7 5 3 15 9 21 23 20 26 25 23 22
33 32 30 30 28 31 31 33 33 34 32 20 20 20 21 21 23 11 5 4 21 17 4 2 1 2 7 6 4 4 5 3 2 2 1 2 2 3 1 3 4 14 11 12 20 24 18 22 15 22 24 23 21 21
33 31 28 29 29 31 33 35 37 37 26 18 21 23 21 22 21 19 7 4 22 13 5 3 1 2 4 2 2 3 3 3 3 1 1 0 1 1 3 5 10 17 16 18 16 6 18 21 27 26 25 23 22 21
29 26 27 28 31 32 36 39 40 23 14 24 24 22 23 18 9 9 6 18 15 5 5 2 3 2 5 2 2 2 2 2 2 1 1 2 2 3 5 4 15 21 13 19 14 19 23 27 26 25 24 21 20 19
25 27 26 28 30 34 41 41 22 12 25 27 32 13 7 17 14 17 6 5 3 3 4 2 3 2 3 2 2 1 3 1 1 0 3 2 3 7 5 1 13 20 16 21 25 19 24 25 26 25 22 18 16 16
24 23 26 27 29 38 40 36 4 20 35 24 9 5 22 29 11 4 3 3 3 1 7 7 5 3 3 2 2 2 1 1 1 1 2 2 3 2 4 3 8 19 15 18 9 14 20 24 30 27 22 18 17 15
21 24 26 26 30 38 38 23 11 26 20 16 11 26 18 6 4 3 2 1 3 5 4 4 4 6 5 4 3 1 2 1 2 1 1 3 1 2 2 5 11 13 14 15 10 18 19 27 26 23 21 20 17 13
22 25 26 27 31 37 36 20 13 19 30 25 7 5 6 1 4 8 9 3 4 5 9 8 4 6 4 4 3 2 3 2 1 2 3 3 3 4 5 9 13 16 18 20 22 25 28 26 22 21 21 17 14 13
23 25 23 29 31 35 31 17 12 28 25 3 3 5 4 5 6 4 4 5 5 13 19 15 5 3 3 3 3 4 1 2 2 3 5 1 7 8 9 12 18 21 23 26 28 29 28 27 24 20 16 15 13 12
23 23 22 30 33 33 28 19 9 21 4 3 1 3 2 4 6 4 9 10 8 25 24 12 8 5 2 3 3 3 3 4 5 4 2 7 11 12 14 17 22 24 27 29 29 28 27 24 22 20 16 13 11 9
24 23 27 31 32 29 23 13 5 4 3 2 4 3 4 3 1 2 6 10 21 24 15 6 4 3 2 4 4 6 7 6 3 3 9 13 15 16 19 22 26 28 30 31 28 26 24 21 19 17 14 11 8 6
24 23 30 30 29 22 16 8 6 5 4 3 3 7 4 5 4 4 8 11 25 20 3 3 4 4 4 3 3 4 5 2 6 12 15 16 20 22 24 27 29 30 29 27 24 21 19 17 14 11 9 9 7 6
25 27 27 26 28 19 13 11 4 5 4 5 1 4 3 3 8 6 6 21 14 8 5 3 8 4 5 6 3 3 5 11 15 16 16 18 21 24 28 30 27 25 23 21 18 17 14 11 10 10 9 9 7 5
24 24 24 23 23 10 7 8 6 3 3 2 4 4 3 4 6 7 10 20 9 7 13 4 3 3 3 1 2 8 20 16 22 23 21 22 27 31 30 27 24 22 19 17 14 13 12 11 10 10 9 8 5 4
20 22 21 19 17 6 4 5 6 4 3 4 3 3 3 3 7 10 15 16 11 6 3 1 2 2 2 4 5 14 20 29 33 30 27 26 29 29 27 25 22 19 16 15 13 11 11 12 11 9 7 5 4 3
19 25 21 16 6 8 4 5 4 4 6 4 1 1 2 6 6 4 4 15 3 2 1 1 4 6 7 10 12 17 23 28 24 33 36 33 28 27 24 20 18 15 13 13 13 13 10 9 9 8 6 5 5 4
21 21 16 10 5 6 3 8 5 8 4 4 3 3 2 1 3 3 5 3 4 3 2 5 11 13 15 16 19 23 25 26 30 34 32 30 27 23 19 17 15 15 13 12 10 10 10 9 9 8 7 6 6 5
17 12 8 6 4 7 4 10 5 7 3 3 3 1 1 1 2 4 3 4 3 3 6 12 12 12 16 20 22 23 24 29 34 32 28 25 22 19 17 15 12 11 13 13 11 10 11 10 9 8 7 7 7 6
12 6 5 6 8 3 7 5 6 4 4 3 3 2 2 2 2 3 3 3 7 4 9 13 16 22 22 24 26 26 27 30 28 25 22 21 21 19 15 14 14 13 10 12 12 11 10 10 9 9 8 8 6 4
4 6 5 5 5 5 5 5 4 2 3 3 3 1 1 4 1 2 2 3 8 11 12 14 13 20 27 26 26 26 26 25 25 24 20 15 16 18 17 15 14 12 11 10 11 10 11 10 10 10 9 7 4 1
2 2 3 1 3 2 3 3 4 4 3 2 2 3 3 2 3 3 2 6 5 5 10 13 16 21 21 23 25 24 22 18 16 17 19 16 14 11 13 13 13 11 10 10 8 10 11 12 10 9 6 4 2 1
0 3 0 1 2 3 3 4 4 3 3 4 3 3 2 2 3 2 2 5 3 4 7 13 15 19 23 22 21 21 19 16 14 14 16 14 13 12 9 8 10 10 11 11 11 10 10 10 8 6 4 2 1 2
2 3 2 1 1 1 1 3 2 3 3 7 5 4 2 4 2 3 2 4 6 8 12 18 22 22 22 22 21 19 17 15 15 15 16 15 13 12 10 9 11 12 12 12 11 10 8 6 4 3 2 1 2 5
2 1 1 3 2 1 2 1 2 3 5 3 3 2 2 3 2 3 5 7 10 14 18 20 21 20 21 19 18 16 15 14 14 15 12 15 14 12 11 11 12 12 11 11 10 8 6 4 3 2 1 3 6 9
4 5 2 2 2 0 1 1 2 3 4 4 4 5 5 5 6 7 9 11 12 15 17 18 18 16 17 15 16 14 12 10 9 7 9 11 12 13 13 12 12 11 10 8 6 5 4 3 2 2 4 7 9 10
5 5 3 2 2 1 2 3 4 4 3 5 6 7 7 6 7 8 9 12 13 14 14 14 14 13 12 11 10 9 8 7 7 7 7 9 12 13 13 12 11 9 7 5 4 3 2 2 3 6 8 10 12 13
4 4 4 2 1 2 3 1 2 2 2 2 4 3 4 3 3 3 5 8 9 10 10 9 8 8 8 8 7 5 5 6 6 7 9 11 12 12 11 9 7 5 4 3 3 2 3 5 7 9 10 12 13 14
4 4 3 3 2 1 2 2 2 2 4 3 3 2 2 2 3 4 6 7 8 8 9 9 8 8 7 7 7 6 7 8 9 11 13 12 11 10 8 6 5 4 3 3 2 3 5 7 9 10 12 13 14 14
Wind_Direction
321 322 321 322 318 321 322 321 321 323 331 330 318 279 305 197 207 210 222 226 221 199 252 277 250 151 258 241 143 161 118 205 134 193 119 167 135 196 143 171 165 157 156 171 133 136 268 136 60 173 206 13 16 95
321 322 321 319 319 321 321 319 319 324 327 323 314 270 237 200 209 208 219 225 231 211 248 287 262 242 236 228 173 174 317 201 123 95 149 148 177 148 172 183 171 172 172 178 184 206 152 135 108 105 106 117 99 115
319 319 319 316 319 318 321 319 317 322 321 322 302 268 201 203 210 205 214 229 201 221 269 263 252 243 228 218 208 148 221 203 114 96 108 106 151 304 162 203 132 193 199 197 138 197 182 179 180 143 144 132 126 131
317 318 318 316 316 316 319 315 314 318 319 318 291 257 211 201 208 203 214 228 207 182 237 168 214 207 232 215 208 190 138 139 156 84 65 54 355 48 330 256 136 185 149 177 150 131 82 223 187 146 135 139 135 136
318 318 319 318 316 318 316 315 317 316 315 314 257 252 209 201 200 204 215 232 219 216 10 99 170 231 206 200 192 192 214 162 169 97 92 202 162 121 327 340 223 194 181 167 212 179 181 179 166 163 150 144 148 143
317 317 317 316 315 317 314 316 316 314 313 310 239 233 199 192 187 188 207 243 222 208 198 125 144 87 105 116 151 171 178 214 228 188 173 175 190 178 180 203 225 184 170 153 154 140 131 145 153 162 151 152 149 142
317 317 317 316 318 316 317 316 313 312 307 287 213 200 187 186 185 182 196 203 193 186 177 112 172 177 149 134 113 116 150 185 198 204 219 155 181 186 260 215 165 157 150 124 132 122 108 140 146 157 149 145 144 139
316 316 316 319 318 322 320 316 314 311 294 214 195 184 179 182 193 208 264 213 176 175 160 125 104 157 159 138 112 126 153 156 45 95 181 17 143 234 252 234 154 149 146 144 155 107 150 146 150 153 156 152 145 142
320 322 319 319 323 324 320 319 317 296 244 181 177 170 169 178 163 173 191 161 155 144 124 128 141 160 150 83 74 72 72 105 353 230 147 324 192 225 237 228 167 163 157 155 145 140 149 157 157 156 154 152 148 144
326 323 323 327 330 326 328 326 318 258 173 161 164 153 163 151 153 141 133 152 127 139 138 133 118 119 118 120 68 121 29 95 138 39 329 205 257 288 281 252 195 181 190 175 143 139 155 156 158 153 153 151 153 152
330 328 331 335 334 334 334 335 333 161 154 153 155 140 141 146 129 134 141 187 151 93 170 164 162 127 153 131 131 25 150 22 141 183 239 250 254 225 30 173 177 193 189 177 192 184 177 171 157 152 150 151 152 149
336 335 338 338 340 338 341 349 171 174 172 153 143 132 122 113 84 102 180 100 198 190 130 141 128 132 154 134 105 50 110 80 208 106 274 252 228 26 74 139 159 177 169 167 160 153 149 154 156 152 147 144 144 142
341 340 342 343 345 343 346 12 150 191 156 147 131 133 126 120 150 181 182 195 178 165 169 152 123 137 125 106 70 97 107 160 37 198 242 242 123 111 122 141 151 154 153 147 142 141 143 142 144 146 141 139 138 136
346 345 347 351 350 348 352 0 129 146 154 121 134 133 167 182 215 186 169 159 155 147 142 128 109 109 115 69 140 98 71 106 143 230 236 173 148 134 137 156 150 146 149 145 138 137 134 135 134 135 135 135 138 134
348 348 346 356 356 353 355 360 54 152 99 106 152 141 157 92 47 64 105 117 120 149 138 115 85 93 64 93 86 120 146 224 213 228 186 136 145 148 144 152 150 146 143 138 137 136 133 134 135 133 134 135 133 127
349 353 352 352 356 354 354 9 80 92 66 68 62 93 77 86 74 103 116 131 144 151 132 100 115 103 127 137 151 205 157 219 227 156 142 155 146 145 147 147 145 143 141 137 135 133 134 135 137 137 137 134 130 130
353 352 348 349 353 355 0 15 26 32 41 41 55 75 60 57 117 146 152 155 160 160 131 130 116 168 114 158 217 191 208 183 135 127 147 156 151 152 149 142 139 138 135 135 134 136 135 136 136 136 139 139 147 156
351 348 350 350 352 357 9 20 34 32 53 27 63 63 66 63 130 154 154 161 164 179 140 147 124 156 173 175 217 190 119 119 129 136 141 148 153 150 148 143 141 138 135 134 134 131 131 136 142 143 146 150 156 156
346 346 348 349 351 354 0 5 14 25 22 25 63 58 81 104 79 161 169 175 148 128 125 106 113 175 207 181 123 125 146 141 126 124 131 144 149 146 143 141 146 144 138 134 134 136 139 139 143 148 154 156 166 162
346 351 348 347 353 3 12 357 3 348 17 355 43 44 70 117 135 146 158 161 138 121 74 81 151 114 111 146 140 167 157 153 140 127 127 136 142 143 144 143 138 136 136 135 135 138 143 145 147 152 159 164 172 169
351 351 351 347 343 23 40 1 343 0 337 356 50 37 84 123 127 132 127 146 94 86 122 60 111 127 126 127 139 158 157 150 145 143 141 138 142 144 142 140 138 135 139 143 149 148 153 153 157 164 168 169 173 176
342 344 342 343 348 6 19 5 315 321 309 325 337 358 116 130 124 114 125 73 59 59 90 153 141 135 134 135 143 151 155 163 153 146 144 143 141 142 143 143 147 146 146 149 154 160 162 163 165 168 174 171 171 169
341 338 344 345 333 357 336 352 12 357 332 5 336 26 30 39 64 109 83 66 67 25 160 158 155 154 143 140 149 146 154 159 149 147 146 145 143 144 147 146 150 159 162 163 166 165 165 168 167 173 172 161 155 154
344 354 7 13 5 303 334 339 349 334 341 352 347 8 31 2 1 71 78 64 32 86 141 146 150 142 137 142 141 142 145 151 146 141 144 150 147 142 146 148 152 152 156 162 165 168 168 170 170 163 157 154 154 159
2 354 12 340 13 6 353 335 338 338 347 345 323 340 358 323 73 64 67 66 48 80 114 135 142 151 137 130 129 132 139 145 144 139 137 146 145 147 147 146 149 153 155 167 168 170 168 165 160 156 153 154 160 190
60 343 62 295 313 50 327 328 339 341 301 334 356 316 312 339 54 56 45 9 18 78 111 120 133 142 134 133 128 130 129 132 144 152 142 146 147 150 149 152 153 153 157 157 168 165 160 155 155 155 158 165 186 282
341 279 151 315 310 302 292 264 279 289 347 352 349 320 341 58 77 69 10 24 79 94 125 134 142 150 138 133 130 131 137 140 142 140 138 140 140 140 140 144 147 149 150 149 147 148 153 153 156 160 168 177 231 316
176 191 165 349 357 327 281 333 351 6 351 346 303 22 29 17 73 2 25 69 96 113 127 135 138 138 133 129 123 121 122 128 135 132 130 128 127 126 128 131 133 138 138 139 145 149 152 156 165 176 189 222 303 319
181 192 181 4 354 63 57 45 15 29 336 325 335 57 71 58 57 112 102 110 119 120 123 125 122 124 122 121 123 126 130 131 135 137 140 130 124 120 125 130 134 137 142 147 148 153 159 169 180 198 247 313 325 328
177 177 120 86 108 199 20 84 96 21 26 81 98 99 84 89 80 102 108 114 121 121 118 118 118 123 121 131 132 130 129 129 129 125 124 130 134 138 137 139 140 143 146 150 157 161 168 192 222 278 310 319 320 323
158 148 109 99 150 184 150 112 87 64 62 65 90 113 118 119 90 92 107 115 115 112 113 114 117 120 128 133 136 135 126 122 118 115 119 129 137 141 144 146 148 150 151 154 162 178 208 251 292 311 320 325 327 328
131 158 133 132 237 151 143 108 83 84 78 72 64 85 103 107 103 128 126 126 128 134 135 136 140 139 143 142 142 141 140 133 126 123 127 135 141 144 147 148 149 152 161 175 190 222 273 299 314 322 326 328 329 330
122 129 111 110 105 132 150 122 59 74 61 68 52 75 85 107 146 167 173 176 175 167 163 163 162 159 158 158 156 152 147 144 140 138 137 139 143 146 150 154 161 173 187 210 250 286 304 314 320 324 327 329 330 330